Location: Abraham Lincoln Continuation High School
(33.9711°N, 117.3662°W)
Time: 04:07:04
(UTC+00:00)

Cosmos 1975 Rocket - Pass Details

Date: 21 September 2020
Orbit: 603 x 634 km, 82.5° (Epoch: 25 October)

Event Time Altitude Azimuth Distance (km) Brightness Sun altitude
Rises 02:11:37 0° 3° (N) 2,864 6.5 -5.7°
Reaches altitude 10° 02:13:59 10° 13° (NNE) 1,955 5.6 -6.2°
Maximum altitude 02:17:58 35° 80° (E) 974 3.6 -7.0°
Drops below altitude 10° 02:21:54 10° 146° (SSE) 1,941 5.2 -7.8°
Sets 02:24:15 0° 155° (SSE) 2,841 6.1 -8.3°
